| time (UTC) | temp F | wind direction | speed MPH | gust MPH | rain 1hr in | rain 24hr in | rain mn in | humidity % | barometer mb |
| 20260504050304 | 43 | 329 | 1.0 | 1.0 | 0.01 | 0.03 | 0.03 | 83 | 1017.5 |
| 20260504045805 | 43 | 318 | 0.0 | 0.0 | 0.01 | 0.03 | 0.03 | 82 | 1017.5 |
| 20260504045305 | 43 | 318 | 0.0 | 1.0 | 0.01 | 0.03 | 0.03 | 82 | 1017.5 |
| 20260504044804 | 43 | 353 | 1.0 | 2.0 | 0.01 | 0.03 | 0.03 | 82 | 1017.5 |
| 20260504044304 | 43 | 44 | 0.0 | 6.0 | 0.02 | 0.03 | 0.03 | 82 | 1017.6 |
| 20260504043804 | 43 | 336 | 3.0 | 5.0 | 0.02 | 0.03 | 0.03 | 82 | 1017.6 |
| 20260504043305 | 43 | 312 | 2.0 | 6.0 | 0.02 | 0.03 | 0.03 | 82 | 1017.6 |
| 20260504042805 | 43 | 335 | 2.0 | 5.0 | 0.02 | 0.03 | 0.03 | 82 | 1017.6 |
| 20260504042304 | 43 | 315 | 1.0 | 5.0 | 0.02 | 0.03 | 0.03 | 82 | 1017.6 |
| 20260504041805 | 43 | 345 | 3.0 | 6.0 | 0.01 | 0.02 | 0.02 | 82 | 1017.6 |
| 20260504030804 | 44 | 11 | 4.0 | 8.0 | 0.01 | 0.01 | 0.01 | 80 | 1018.0 |
| 20260504030304 | 44 | 29 | 5.0 | 8.0 | 0.01 | 0.01 | 0.01 | 80 | 1018.0 |
| 20260504025804 | 44 | 6 | 5.0 | 8.0 | 0.01 | 0.01 | 0.01 | 80 | 1018.0 |
| 20260504025304 | 44 | 25 | 4.0 | 6.0 | 0.01 | 0.01 | 0.01 | 79 | 1018.1 |
| 20260504024804 | 45 | 4 | 3.0 | 6.0 | 0.01 | 0.01 | 0.01 | 78 | 1018.1 |
| 20260504024304 | 45 | 27 | 2.0 | 5.0 | 0.01 | 0.01 | 0.01 | 78 | 1018.1 |
| 20260504023804 | 45 | 10 | 3.0 | 5.0 | 0.01 | 0.01 | 0.01 | 78 | 1018.1 |
| 20260504023304 | 45 | 21 | 3.0 | 6.0 | 0.01 | 0.01 | 0.01 | 77 | 1018.1 |
| 20260504022804 | 45 | 48 | 4.0 | 8.0 | 0.00 | 0.00 | 0.00 | 77 | 1018.2 |
| 20260504022304 | 45 | 18 | 3.0 | 6.0 | 0.00 | 0.00 | 0.00 | 76 | 1018.2 |
| 20260504021804 | 45 | 35 | 3.0 | 6.0 | 0.00 | 0.00 | 0.00 | 76 | 1018.2 |
| 20260504021304 | 45 | 20 | 4.0 | 7.0 | 0.00 | 0.00 | 0.00 | 75 | 1018.2 |
| 20260504020804 | 46 | 48 | 3.0 | 8.0 | 0.00 | 0.00 | 0.00 | 75 | 1018.2 |
| 20260504020304 | 46 | 33 | 4.0 | 7.0 | 0.00 | 0.00 | 0.00 | 75 | 1018.3 |
| 20260504015804 | 46 | 28 | 4.0 | 7.0 | 0.00 | 0.00 | 0.00 | 74 | 1018.3 |
| 20260504015304 | 46 | 26 | 3.0 | 7.0 | 0.00 | 0.00 | 0.00 | 73 | 1018.3 |
| 20260504014804 | 46 | 41 | 3.0 | 6.0 | 0.00 | 0.00 | 0.00 | 72 | 1018.3 |
| 20260504014304 | 47 | 24 | 2.0 | 7.0 | 0.00 | 0.00 | 0.00 | 71 | 1018.3 |
| 20260504013804 | 47 | 43 | 3.0 | 6.0 | 0.00 | 0.00 | 0.00 | 70 | 1018.4 |
| 20260504013304 | 47 | 37 | 3.0 | 6.0 | 0.00 | 0.00 | 0.00 | 69 | 1018.4 |
| 20260504012804 | 48 | 31 | 3.0 | 5.0 | 0.00 | 0.00 | 0.00 | 68 | 1018.4 |
| 20260504012304 | 48 | 45 | 3.0 | 5.0 | 0.00 | 0.00 | 0.00 | 67 | 1018.5 |
| 20260504011804 | 48 | 65 | 3.0 | 7.0 | 0.00 | 0.00 | 0.00 | 66 | 1018.5 |
| 20260504011304 | 48 | 138 | 2.0 | 5.0 | 0.00 | 0.00 | 0.00 | 65 | 1018.6 |
| 20260504010804 | 49 | 82 | 2.0 | 5.0 | 0.00 | 0.00 | 0.00 | 64 | 1018.6 |
| 20260504010304 | 49 | 98 | 2.0 | 6.0 | 0.00 | 0.00 | 0.00 | 63 | 1018.6 |
| 20260504005804 | 49 | 59 | 1.0 | 3.0 | 0.00 | 0.00 | 0.00 | 63 | 1018.6 |
| 20260504005305 | 49 | 67 | 1.0 | 7.0 | 0.00 | 0.00 | 0.00 | 62 | 1018.6 |
| 20260504004804 | 49 | 52 | 2.0 | 5.0 | 0.00 | 0.00 | 0.00 | 62 | 1018.6 |
| 20260504004305 | 49 | 30 | 2.0 | 3.0 | 0.00 | 0.00 | 0.00 | 62 | 1018.7 |
| 20260504003804 | 49 | 303 | 1.0 | 6.0 | 0.00 | 0.00 | 0.00 | 61 | 1018.7 |
| 20260504003304 | 49 | 15 | 1.0 | 6.0 | 0.00 | 0.00 | 0.00 | 60 | 1018.7 |
| 20260504002804 | 49 | 353 | 2.0 | 5.0 | 0.00 | 0.00 | 0.00 | 60 | 1018.7 |
| 20260504002305 | 50 | 65 | 4.0 | 7.0 | 0.00 | 0.00 | 0.00 | 59 | 1018.7 |
| 20260504001804 | 50 | 37 | 2.0 | 6.0 | 0.00 | 0.00 | 0.00 | 59 | 1018.6 |
| 20260504001304 | 50 | 30 | 3.0 | 8.0 | 0.00 | 0.00 | 0.00 | 59 | 1018.7 |
| 20260504000804 | 50 | 9 | 4.0 | 8.0 | 0.00 | 0.00 | 0.00 | 58 | 1018.7 |
| 20260504000304 | 50 | 12 | 6.0 | 9.0 | 0.00 | 0.00 | 0.00 | 58 | 1018.7 |
| 20260503235804 | 51 | 61 | 5.0 | 7.0 | 0.00 | 0.00 | 0.00 | 57 | 1018.7 |
| 20260503235305 | 51 | 58 | 2.0 | 6.0 | 0.00 | 0.00 | 0.00 | 58 | 1018.7 |
| 20260503234804 | 51 | 59 | 3.0 | 7.0 | 0.00 | 0.00 | 0.00 | 58 | 1018.7 |
| 20260503234304 | 50 | 47 | 2.0 | 7.0 | 0.00 | 0.00 | 0.00 | 58 | 1018.7 |
| 20260503233804 | 50 | 79 | 3.0 | 7.0 | 0.00 | 0.00 | 0.00 | 58 | 1018.8 |
| 20260503233304 | 50 | 8 | 5.0 | 7.0 | 0.00 | 0.00 | 0.00 | 57 | 1018.8 |
| 20260503232804 | 50 | 137 | 2.0 | 5.0 | 0.00 | 0.00 | 0.00 | 59 | 1018.7 |
| 20260503232305 | 50 | 157 | 4.0 | 7.0 | 0.00 | 0.00 | 0.00 | 58 | 1018.7 |
| 20260503231804 | 50 | 151 | 3.0 | 8.0 | 0.00 | 0.00 | 0.00 | 58 | 1019.0 |
| 20260503231304 | 50 | 132 | 5.0 | 9.0 | 0.00 | 0.00 | 0.00 | 58 | 1018.9 |
| 20260503230804 | 50 | 156 | 4.0 | 8.0 | 0.00 | 0.00 | 0.00 | 58 | 1019.0 |
| 20260503230304 | 50 | 86 | 5.0 | 7.0 | 0.00 | 0.00 | 0.00 | 59 | 1018.9 |
| 20260503225804 | 50 | 106 | 2.0 | 8.0 | 0.00 | 0.00 | 0.00 | 59 | 1019.0 |
| 20260503225305 | 50 | 5 | 2.0 | 3.0 | 0.00 | 0.00 | 0.00 | 59 | 1019.1 |
| 20260503224804 | 50 | 90 | 2.0 | 5.0 | 0.00 | 0.00 | 0.00 | 59 | 1019.1 |
| 20260503224304 | 50 | 164 | 2.0 | 5.0 | 0.00 | 0.00 | 0.00 | 60 | 1019.1 |
| 20260503223803 | 49 | 132 | 1.0 | 7.0 | 0.00 | 0.00 | 0.00 | 60 | 1019.0 |
| 20260503223304 | 49 | 278 | 0.0 | 3.0 | 0.00 | 0.00 | 0.00 | 60 | 1019.2 |
| 20260503222803 | 49 | 336 | 1.0 | 3.0 | 0.00 | 0.00 | 0.00 | 61 | 1019.2 |
| 20260503222304 | 50 | 4 | 1.0 | 3.0 | 0.00 | 0.00 | 0.00 | 61 | 1019.1 |
| 20260503221804 | 50 | 43 | 5.0 | 8.0 | 0.00 | 0.00 | 0.00 | 61 | 1019.1 |
| 20260503221304 | 49 | 32 | 1.0 | 5.0 | 0.00 | 0.00 | 0.00 | 62 | 1019.2 |
| 20260503220804 | 49 | 291 | 2.0 | 5.0 | 0.00 | 0.00 | 0.00 | 62 | 1019.4 |
| 20260503220304 | 49 | 353 | 1.0 | 5.0 | 0.00 | 0.00 | 0.00 | 62 | 1019.6 |
| 20260503215804 | 49 | 347 | 3.0 | 6.0 | 0.00 | 0.00 | 0.00 | 62 | 1019.5 |
| 20260503215305 | 49 | 2 | 1.0 | 3.0 | 0.00 | 0.00 | 0.00 | 61 | 1019.6 |
| 20260503214804 | 49 | 18 | 3.0 | 7.0 | 0.00 | 0.00 | 0.00 | 60 | 1019.6 |
| 20260503214304 | 50 | 23 | 6.0 | 10.0 | 0.00 | 0.00 | 0.00 | 58 | 1019.6 |
| 20260503213804 | 50 | 18 | 4.0 | 8.0 | 0.00 | 0.00 | 0.00 | 58 | 1019.5 |
| 20260503213304 | 51 | 340 | 6.0 | 9.0 | 0.00 | 0.00 | 0.00 | 57 | 1019.4 |
| 20260503212804 | 51 | 337 | 4.0 | 8.0 | 0.00 | 0.00 | 0.00 | 55 | 1019.4 |
| 20260503212305 | 51 | 313 | 2.0 | 6.0 | 0.00 | 0.00 | 0.00 | 55 | 1019.4 |
| 20260503211804 | 51 | 344 | 1.0 | 6.0 | 0.00 | 0.00 | 0.00 | 54 | 1019.4 |
| 20260503211304 | 51 | 298 | 2.0 | 6.0 | 0.00 | 0.00 | 0.00 | 55 | 1019.5 |
| 20260503210804 | 51 | 314 | 4.0 | 8.0 | 0.00 | 0.00 | 0.00 | 56 | 1019.5 |
| 20260503210304 | 51 | 313 | 4.0 | 8.0 | 0.00 | 0.00 | 0.00 | 56 | 1019.4 |
| 20260503205804 | 51 | 278 | 2.0 | 6.0 | 0.00 | 0.00 | 0.00 | 54 | 1019.5 |
| 20260503205304 | 51 | 259 | 2.0 | 7.0 | 0.00 | 0.00 | 0.00 | 56 | 1019.5 |
| 20260503204304 | 51 | 294 | 3.0 | 5.0 | 0.00 | 0.00 | 0.00 | 56 | 1019.6 |
| 20260503203804 | 51 | 27 | 0.0 | 1.0 | 0.00 | 0.00 | 0.00 | 56 | 1019.7 |
| 20260503203304 | 51 | 357 | 3.0 | 6.0 | 0.00 | 0.00 | 0.00 | 56 | 1019.7 |
| 20260503202804 | 51 | 279 | 1.0 | 5.0 | 0.00 | 0.00 | 0.00 | 55 | 1019.6 |
| 20260503202304 | 51 | 337 | 1.0 | 5.0 | 0.00 | 0.00 | 0.00 | 56 | 1019.6 |
| 20260503201804 | 50 | 191 | 1.0 | 2.0 | 0.00 | 0.00 | 0.00 | 56 | 1019.6 |
| 20260503201304 | 50 | 217 | 1.0 | 3.0 | 0.00 | 0.00 | 0.00 | 57 | 1019.6 |
| 20260503200804 | 50 | 281 | 2.0 | 5.0 | 0.00 | 0.00 | 0.00 | 57 | 1019.7 |
| 20260503200304 | 50 | 295 | 1.0 | 2.0 | 0.00 | 0.00 | 0.00 | 57 | 1019.6 |
| 20260503195804 | 50 | 268 | 2.0 | 3.0 | 0.00 | 0.00 | 0.00 | 57 | 1019.6 |
| 20260503195305 | 49 | 12 | 1.0 | 2.0 | 0.00 | 0.00 | 0.00 | 58 | 1019.6 |
| 20260503194804 | 49 | 322 | 0.0 | 2.0 | 0.00 | 0.00 | 0.00 | 58 | 1019.6 |
| 20260503194304 | 49 | 341 | 3.0 | 3.0 | 0.00 | 0.00 | 0.00 | 59 | 1019.7 |
| 20260503193804 | 49 | 256 | 2.0 | 6.0 | 0.00 | 0.00 | 0.00 | 59 | 1019.7 |
| 20260503193304 | 49 | 187 | 2.0 | 6.0 | 0.00 | 0.00 | 0.00 | 59 | 1019.7 |
| 20260503192804 | 49 | 244 | 1.0 | 3.0 | 0.00 | 0.00 | 0.00 | 58 | 1019.7 |
| 20260503192305 | 49 | 168 | 1.0 | 3.0 | 0.00 | 0.00 | 0.00 | 60 | 1019.8 |
| 20260503191804 | 49 | 219 | 1.0 | 3.0 | 0.00 | 0.00 | 0.00 | 60 | 1019.7 |
| 20260503191304 | 48 | 197 | 2.0 | 3.0 | 0.00 | 0.00 | 0.00 | 60 | 1019.8 |
| 20260503190803 | 48 | 302 | 0.0 | 0.0 | 0.00 | 0.00 | 0.00 | 60 | 1019.9 |
| 20260503190304 | 48 | 302 | 0.0 | 2.0 | 0.00 | 0.00 | 0.00 | 60 | 1019.8 |
| 20260503185804 | 48 | 337 | 0.0 | 0.0 | 0.00 | 0.00 | 0.00 | 61 | 1019.8 |
| 20260503185305 | 48 | 337 | 0.0 | 0.0 | 0.00 | 0.00 | 0.00 | 61 | 1019.9 |
| 20260503184804 | 48 | 337 | 0.0 | 0.0 | 0.00 | 0.00 | 0.00 | 62 | 1019.9 |
| 20260503184304 | 47 | 337 | 0.0 | 1.0 | 0.00 | 0.00 | 0.00 | 62 | 1019.9 |
| 20260503173804 | 45 | 11 | 0.0 | 1.0 | 0.00 | 0.00 | 0.00 | 67 | 1019.7 |
| 20260503173304 | 45 | 96 | 0.0 | 1.0 | 0.00 | 0.00 | 0.00 | 67 | 1019.8 |
| 20260503172804 | 44 | 125 | 0.0 | 1.0 | 0.00 | 0.00 | 0.00 | 68 | 1019.8 |
| 20260503172305 | 44 | 176 | 0.0 | 1.0 | 0.00 | 0.00 | 0.00 | 68 | 1019.9 |
| 20260503171804 | 44 | 201 | 2.0 | 2.0 | 0.00 | 0.00 | 0.00 | 68 | 1020.0 |
| 20260503171305 | 44 | 236 | 0.0 | 1.0 | 0.00 | 0.00 | 0.00 | 68 | 1020.0 |
| 20260503170804 | 44 | 241 | 1.0 | 1.0 | 0.00 | 0.00 | 0.00 | 69 | 1019.9 |
| 20260503170304 | 44 | 328 | 0.0 | 1.0 | 0.00 | 0.00 | 0.00 | 69 | 1019.9 |
| 20260503150804 | 41 | 201 | 1.0 | 2.0 | 0.00 | 0.00 | 0.00 | 70 | 1019.8 |
| 20260503150303 | 41 | 181 | 1.0 | 1.0 | 0.00 | 0.00 | 0.00 | 70 | 1019.8 |
| 20260503140304 | 41 | 327 | 3.0 | 5.0 | 0.00 | 0.00 | 0.00 | 70 | 1020.1 |
| 20260503131305 | 42 | 253 | 0.0 | 1.0 | 0.00 | 0.00 | 0.00 | 67 | 1019.9 |
| 20260503130804 | 42 | 320 | 2.0 | 3.0 | 0.00 | 0.00 | 0.00 | 67 | 1019.9 |
| 20260503130304 | 42 | 323 | 0.0 | 0.0 | 0.00 | 0.00 | 0.00 | 66 | 1019.9 |
| 20260503110804 | 44 | 237 | 0.0 | 2.0 | 0.00 | 0.00 | 0.00 | 60 | 1020.3 |
| 20260503110303 | 45 | 272 | 1.0 | 5.0 | 0.00 | 0.00 | 0.00 | 60 | 1020.4 |
| 20260503090304 | 47 | 164 | 8.0 | 13.0 | 0.00 | 0.00 | 0.00 | 54 | 1019.9 |
| 20260503080803 | 47 | 147 | 9.0 | 15.0 | 0.00 | 0.00 | 0.00 | 54 | 1019.9 |
| 20260503080304 | 47 | 170 | 6.0 | 13.0 | 0.00 | 0.00 | 0.00 | 54 | 1019.8 |
| 20260503072804 | 46 | 192 | 6.0 | 12.0 | 0.00 | 0.00 | 0.00 | 58 | 1019.5 |
| 20260503072305 | 46 | 178 | 2.0 | 7.0 | 0.00 | 0.00 | 0.00 | 59 | 1019.4 |
| 20260503071804 | 46 | 132 | 2.0 | 6.0 | 0.00 | 0.00 | 0.00 | 59 | 1019.6 |
| 20260503071304 | 47 | 152 | 6.0 | 12.0 | 0.00 | 0.00 | 0.00 | 58 | 1019.5 |
| 20260503070804 | 47 | 59 | 2.0 | 6.0 | 0.00 | 0.00 | 0.00 | 56 | 1019.6 |
| 20260503070304 | 47 | 171 | 7.0 | 14.0 | 0.00 | 0.00 | 0.00 | 54 | 1019.4 |